Weather History for KNKX - March, 2013

Change the Weather History Date:

Sunday, March 31, 2013

  Actual Average Record
Temperature  
Mean Temperature 60 °F -  
Max Temperature 72 °F 61 °F 86 °F (2011)
Min Temperature 48 °F 46 °F 42 °F (2008)
Degree Days  
Heating Degree Days 6    
Growing Degree Days 10 (Base 50)    
Moisture  
Dew Point 50 °F    
Average Humidity 74    
Maximum Humidity 90    
Minimum Humidity 47    
Precipitation  
Precipitation 0.00 in - - ()
Sea Level Pressure  
Sea Level Pressure 30.10 in    
Wind  
Wind Speed 4 mph (WNW)    
Max Wind Speed 13 mph    
Max Gust Speed 20 mph    
Visibility 10 miles    
Events      
Averages and records for this station are not official NWS values.
T = Trace of Precipitation, MM = Missing Value Source: NWS Daily Summary

Daily Weather History Graph

Daily Weather History Graph

Search for Another Location

Airport or City:

Trip Planner

Search our weather history database for the weather conditions in past years. The results will help you decide how hot, cold, wet, or windy it might be!

Date:

Astronomy

Mar. 31, 2013 Rise Set
Actual Time 6:37 AM PDT 7:08 PM PDT
Civil Twilight 6:12 AM PDT 7:33 PM PDT
Nautical Twilight 5:43 AM PDT 8:02 PM PDT
Astronomical Twilight 5:13 AM PDT 8:31 PM PDT
Moon No Moon Rise 9:43 AM PDT (3/31)
Length of Visible Light 13h 20m
Length of Day
12h 30m
Waning Gibbous, 76% of the Moon is Illuminated
Mar 31
Waning Gibbous
Apr 2
Last Quarter
Apr 10
New
Apr 18
First Quarter
Apr 25
Full

Hourly Weather History & Observations

Time (PDT) Temp. Dew Point Humidity Pressure Visibility Wind Dir Wind Speed Gust Speed Precip Events Conditions
12:55 AM 48.9 °F 46.0 °F 90% 30.11 in 10.0 mi West 3.5 mph - N/A   Partly Cloudy
1:55 AM 50.0 °F 46.0 °F 86% 30.11 in 10.0 mi East 3.5 mph - N/A   Scattered Clouds
2:55 AM 55.9 °F 51.1 °F 84% 30.11 in 10.0 mi NNW 4.6 mph - N/A   Mostly Cloudy
3:02 AM 55.4 °F 51.8 °F 88% 30.12 in 10.0 mi West 4.6 mph - N/A   Mostly Cloudy
3:55 AM 55.0 °F 50.0 °F 83% 30.09 in 10.0 mi North 5.8 mph - N/A   Mostly Cloudy
4:55 AM 54.0 °F 50.0 °F 86% 30.09 in 10.0 mi Calm Calm - N/A   Mostly Cloudy
5:55 AM 54.0 °F 48.9 °F 83% 30.10 in 10.0 mi Calm Calm - N/A   Mostly Cloudy
6:55 AM 54.0 °F 48.9 °F 83% 30.12 in 10.0 mi ESE 3.5 mph - N/A   Overcast
7:55 AM 55.9 °F 50.0 °F 80% 30.12 in 10.0 mi Calm Calm - N/A   Overcast
8:55 AM 57.9 °F 48.9 °F 72% 30.12 in 10.0 mi ENE 3.5 mph - N/A   Mostly Cloudy
9:55 AM 60.1 °F 48.9 °F 67% 30.14 in 10.0 mi Calm Calm - N/A   Mostly Cloudy
10:55 AM 64.9 °F 50.0 °F 58% 30.13 in 10.0 mi Variable 3.5 mph - N/A   Scattered Clouds
11:55 AM 68.0 °F 48.9 °F 50% 30.12 in 10.0 mi Variable 4.6 mph - N/A   Partly Cloudy
12:55 PM 69.1 °F 50.0 °F 51% 30.11 in 10.0 mi Variable 3.5 mph - N/A   Scattered Clouds
1:55 PM 71.1 °F 50.0 °F 47% 30.09 in 10.0 mi West 9.2 mph - N/A   Mostly Cloudy
2:00 PM - - N/A% - - North - - N/A   Unknown
2:55 PM 68.0 °F 50.0 °F 52% 30.07 in 10.0 mi West 12.7 mph - N/A   Partly Cloudy
3:55 PM 66.9 °F 51.1 °F 57% 30.07 in 10.0 mi WNW 11.5 mph 19.6 mph N/A   Scattered Clouds
4:55 PM 64.9 °F 52.0 °F 63% 30.07 in 10.0 mi West 10.4 mph - N/A   Scattered Clouds
5:55 PM 63.0 °F 53.1 °F 70% 30.07 in 10.0 mi WNW 10.4 mph - N/A   Scattered Clouds
6:55 PM 61.0 °F 53.1 °F 75% 30.07 in 10.0 mi West 6.9 mph - N/A   Scattered Clouds
7:55 PM 59.0 °F 53.1 °F 81% 30.08 in 10.0 mi West 5.8 mph - N/A   Mostly Cloudy
8:55 PM 57.9 °F 53.1 °F 84% 30.09 in 10.0 mi West 4.6 mph - N/A   Mostly Cloudy
9:01 PM - - N/A% - - North - - N/A   Unknown
9:55 PM 57.9 °F 53.1 °F 84% 30.12 in 10.0 mi WNW 6.9 mph - 0.00 in   Mostly Cloudy
10:55 PM 57.0 °F 52.0 °F 83% 30.12 in 10.0 mi West 3.5 mph - N/A   Mostly Cloudy
11:55 PM 55.0 °F 51.1 °F 86% 30.11 in 10.0 mi Calm Calm - N/A   Scattered Clouds